[[{"header":{"parameterUnit":"m.s-1","parameterCategory":1,"la1":30.2992,"la2":30.254,"lo1":-89.0895,"lo2":-89.0443,"dy":0.0025,"dx":0.0025,"nx":19,"ny":19,"refTime":"2026-04-02T21:00:00:Z","depth":0,"parameterNumber":2,"parameterNumberName":"U-component_of_WINDS"},"data":[0,0,0,-4.1777,-4.178,-4.1903,-4.1903,-4.2071,-4.2073,0,0,0,0,0,0,0,0,0,0,0,-4.1746,-4.1747,-4.1777,-4.178,-4.1903,-4.1903,-4.2071,-4.2073,0,0,0,0,0,0,0,0,0,0,0,-4.1745,-4.1747,-4.1749,-4.178,-4.1903,-4.1903,-4.2071,-4.1974,0,0,0,0,0,0,0,0,0,0,-4.1853,-4.183,-4.1747,-4.1749,-4.1781,-4.1903,-4.1903,-4.1969,-4.198,-4.202,0,-4.2056,0,-4.2067,-4.2085,-4.2085,0,0,0,-4.1776,-4.1821,-4.1849,-4.1749,-4.1782,-4.1902,-4.1846,-4.1975,-4.1988,-4.2034,-4.2058,-4.2064,-4.207,-4.2086,-4.2087,-4.2329,-4.233,0,0,-4.1769,-4.1771,-4.184,-4.1857,-4.1838,-4.1842,-4.185,-4.1983,-4.2009,-4.2059,-4.2068,-4.2073,-4.2087,-4.2088,-4.2327,-4.2329,0,0,0,-4.1752,-4.1767,-4.1791,-4.185,-4.1872,-4.1846,-4.1855,-4.2003,-4.2011,-4.207,-4.2075,-4.2088,-4.209,-4.2326,-4.2328,-4.2394,0,0,0,-4.1748,-4.1757,-4.1789,-4.1791,-4.187,-4.1939,-4.1873,-4.2002,-4.2017,-4.2074,-4.2088,-4.2092,-4.2324,-4.2327,-4.2389,-4.2425,0,0,0,-4.1736,-4.1755,-4.1775,-4.1791,-4.1844,-4.1937,-4.1952,-4.2005,-4.202,-4.2086,-4.2092,-4.2323,-4.2327,-4.2385,-4.2418,-4.2488,0,0,0,-4.1724,-4.1833,-4.1776,-4.19,-4.1843,-4.1977,-4.1951,-4.2051,-4.2115,-4.2089,-4.2325,-4.2328,-4.2384,-4.2413,-4.2484,-4.2547,-4.2574,0,0,-4.1863,-4.185,-4.1922,-4.1875,-4.202,-4.1958,-4.2113,-4.217,-4.2175,-4.2277,-4.2283,-4.2391,-4.2417,-4.2487,-4.2728,-4.2749,0,0,0,-4.1967,-4.2019,-4.2057,-4.2118,-4.2164,-4.2207,-4.224,-4.2261,-4.2348,-4.2228,-4.2437,-4.2452,-4.2493,-4.2523,-4.2542,-4.2576,-4.2342,-4.2342,-4.2342,-4.2165,-4.2165,-4.2285,-4.2301,-4.2361,-4.2394,-4.2443,-4.2478,-4.246,-4.251,-4.2539,-4.2685,-4.2721,-4.2734,-4.2771,-4.2575,-4.2575,-4.2575,-4.2575,-4.2366,-4.2439,-4.2415,-4.2522,-4.2523,-4.2613,-4.2651,-4.2636,-4.2721,-4.2663,-4.2699,-4.2634,-4.2758,-4.279,-4.258,-4.258,-4.2579,-4.2578,-4.2578,-4.2494,-4.2529,-4.2554,-4.2643,-4.2712,-4.2725,-4.2807,-4.2805,-4.2803,-4.2839,-4.287,-4.2869,-4.2866,-4.2855,-4.2855,-4.2856,-4.2856,-4.2857,-4.2857,-4.2616,-4.2642,-4.2711,-4.2771,-4.281,-4.2862,-4.2898,-4.2937,-4.298,-4.2972,-4.2972,-4.2949,-4.2771,-4.2725,-4.2865,-4.2863,-4.2862,-4.2862,-4.2861,-4.2817,-4.2772,-4.2878,-4.2918,-4.2988,-4.3056,-4.3054,-4.3134,-4.3166,-4.3207,-4.3178,-4.3047,-4.3033,-4.3018,-4.298,-4.3178,-4.3178,-4.3178,-4.3178,-4.2923,-4.2917,-4.3026,-4.3089,-4.3151,-4.316,-4.3282,-4.3312,-4.3336,-4.3357,-4.3328,-4.3278,-4.3264,-4.3259,-4.3239,-4.3203,-4.3453,-4.3454,-4.3454,-4.3046,-4.3046,-4.3149,-4.3172,-4.3227,-4.3274,-4.3389,-4.3463,-4.3482,-4.3465,-4.3372,-4.3361,-4.328,-4.3254,-4.3232,-4.3201,-4.3135,0,0]},{"header":{"parameterUnit":"m.s-1","parameterCategory":1,"la1":30.2992,"la2":30.254,"lo1":-89.0895,"lo2":-89.0443,"dy":0.0025,"dx":0.0025,"nx":19,"ny":19,"refTime":"2026-04-02T21:00:00:Z","depth":0,"parameterNumber":3,"parameterNumberName":"V-component_of_WINDS"},"data":[0,0,0,2.8834,2.8835,2.8889,2.8889,2.8945,2.8946,0,0,0,0,0,0,0,0,0,0,0,2.8813,2.8813,2.8834,2.8836,2.8889,2.8889,2.8945,2.8946,0,0,0,0,0,0,0,0,0,0,0,2.8813,2.8813,2.8813,2.8836,2.8889,2.8889,2.8945,2.8909,0,0,0,0,0,0,0,0,0,0,2.8859,2.8833,2.8813,2.8813,2.8836,2.8889,2.8889,2.8907,2.8911,2.8916,0,2.8921,0,2.8934,2.8949,2.8949,0,0,0,2.8839,2.883,2.885,2.8813,2.8836,2.8889,2.8866,2.8909,2.8914,2.8921,2.8922,2.8924,2.8935,2.8949,2.8949,2.8973,2.8973,0,0,2.8836,2.8819,2.8847,2.8853,2.8846,2.8864,2.8868,2.8912,2.8911,2.8922,2.8926,2.8936,2.8949,2.895,2.8973,2.8973,0,0,0,2.8825,2.8816,2.8836,2.885,2.8861,2.8866,2.887,2.8909,2.8917,2.8927,2.8937,2.895,2.895,2.8973,2.8973,2.8954,0,0,0,2.8824,2.881,2.8834,2.8824,2.886,2.8886,2.8865,2.8914,2.8919,2.8937,2.895,2.8951,2.8973,2.8973,2.8954,2.8947,0,0,0,2.8811,2.8809,2.8815,2.8823,2.8845,2.8886,2.8896,2.8915,2.8925,2.8949,2.8951,2.8973,2.8973,2.8955,2.8948,2.8949,0,0,0,2.8792,2.8795,2.8814,2.8821,2.8845,2.8874,2.8896,2.8918,2.8936,2.895,2.8973,2.8973,2.8955,2.8949,2.8949,2.8946,2.8943,0,0,2.8785,2.8793,2.8799,2.8818,2.8839,2.8867,2.8885,2.8917,2.8934,2.8959,2.8959,2.8954,2.8948,2.8949,2.8933,2.8931,0,0,0,2.8791,2.8795,2.8804,2.8822,2.8848,2.887,2.8901,2.8914,2.8936,2.8944,2.8955,2.8952,2.8953,2.8952,2.895,2.8952,2.8972,2.8972,2.8972,2.8755,2.878,2.8791,2.8822,2.8839,2.8873,2.8888,2.891,2.8927,2.8929,2.8937,2.8925,2.8923,2.8922,2.8924,2.8937,2.8937,2.8937,2.8937,2.8748,2.8757,2.8784,2.8804,2.883,2.8846,2.8879,2.8891,2.891,2.8921,2.8923,2.8932,2.8918,2.8921,2.8936,2.8936,2.8936,2.8936,2.8936,2.8727,2.8736,2.8753,2.8782,2.8801,2.8832,2.885,2.8872,2.8892,2.8894,2.8904,2.8905,2.8908,2.8898,2.8898,2.8898,2.8898,2.8898,2.8898,2.8699,2.8718,2.8731,2.8761,2.8776,2.8799,2.8834,2.8849,2.887,2.8885,2.8885,2.8902,2.8913,2.8915,2.8897,2.8897,2.8897,2.8897,2.8897,2.8682,2.869,2.871,2.8726,2.8763,2.8782,2.881,2.8839,2.8854,2.8862,2.888,2.8884,2.8893,2.8895,2.8897,2.8875,2.8875,2.8875,2.8875,2.8664,2.8672,2.8699,2.8722,2.8748,2.8776,2.8798,2.8825,2.8854,2.8865,2.8872,2.8876,2.8877,2.8885,2.8887,2.8889,2.8866,2.8866,2.8866,2.8656,2.8667,2.8682,2.8713,2.8745,2.8771,2.8792,2.8816,2.8851,2.8866,2.8874,2.8875,2.8882,2.8883,2.8898,2.8901,2.8905,0,0]}]]